FW0475 Weather Reports


Display with metric or nautical units.
time (UTC)temp
F
wind
direction
speed
MPH
gust
MPH
rain 1hr
in
rain 24hr
in
rain mn
in
humidity
%
barometer
mb
20260906143320 67 34 1.0 2.0 0.00 0.00 0.00 77 1022.6
20260906142822 66 302 0.0 2.0 0.00 0.00 0.00 77 1022.5
20260906142352 66 319 0.0 2.0 0.00 0.00 0.00 77 1022.5
20260906141813 66 19 0.0 2.0 0.00 0.00 0.00 77 1022.5
20260906141315 66 40 0.0 2.0 0.00 0.00 0.00 78 1022.5
20260906140843 65 14 0.0 2.0 0.00 0.00 0.00 78 1022.4
20260906140351 65 60 0.0 3.0 0.00 0.00 0.00 78 1022.4
20260906135812 65 61 1.0 3.0 0.00 0.00 0.00 78 1022.2
20260906135314 65 67 1.0 3.0 0.00 0.00 0.00 78 1022.2
20260906134822 65 67 1.0 2.0 0.00 0.00 0.00 79 1022.1
20260906134325 64 61 1.0 2.0 0.00 0.00 0.00 79 1022.0
20260906133832 64 73 1.0 2.0 0.00 0.00 0.00 78 1021.9
20260906133313 64 64 1.0 2.0 0.00 0.00 0.00 79 1021.9
20260906132815 64 69 1.0 2.0 0.00 0.00 0.00 79 1021.9
20260906132324 64 67 1.0 2.0 0.00 0.00 0.00 79 1021.8
20260906131826 63 67 1.0 2.0 0.00 0.00 0.00 79 1021.8
20260906131328 63 74 1.0 2.0 0.00 0.00 0.00 80 1021.7
20260906130836 63 71 1.0 2.0 0.00 0.00 0.00 79 1021.8
20260906130319 63 69 1.0 2.0 0.00 0.00 0.00 80 1021.9
20260906125820 63 70 1.0 2.0 0.00 0.00 0.00 80 1021.9
20260906125329 62 69 1.0 3.0 0.00 0.00 0.00 80 1021.9
20260906124830 62 70 1.0 3.0 0.00 0.00 0.00 80 1021.9
20260906124313 62 69 1.0 2.0 0.00 0.00 0.00 80 1021.7
20260906123814 62 71 1.0 3.0 0.00 0.00 0.00 80 1021.7
20260906123323 62 70 1.0 3.0 0.00 0.00 0.00 80 1021.6
20260906122824 62 72 1.0 3.0 0.00 0.00 0.00 80 1021.5
20260906122333 61 69 1.0 3.0 0.00 0.00 0.00 80 1021.5
20260906121819 61 70 1.0 2.0 0.00 0.00 0.00 80 1021.5
20260906121321 61 69 0.0 3.0 0.00 0.00 0.00 80 1021.5
20260906120822 61 68 1.0 3.0 0.00 0.00 0.00 80 1021.4
20260906120331 61 71 1.0 2.0 0.00 0.00 0.00 80 1021.3
20260906115813 61 73 1.0 2.0 0.00 0.00 0.00 80 1021.3
20260906115315 61 71 1.0 2.0 0.00 0.00 0.00 80 1021.3
20260906114824 61 76 1.0 3.0 0.00 0.00 0.00 80 1021.3
20260906114346 61 77 1.0 3.0 0.00 0.00 0.00 81 1021.1
20260906113833 61 82 1.0 3.0 0.00 0.00 0.00 81 1021.1
20260906113315 61 74 1.0 3.0 0.00 0.00 0.00 80 1021.0
20260906112817 61 76 1.0 3.0 0.00 0.00 0.00 81 1021.0
20260906112325 61 74 2.0 3.0 0.00 0.00 0.00 80 1020.9
20260906111848 61 70 1.0 3.0 0.00 0.00 0.00 80 1020.9
20260906111337 61 72 1.0 2.0 0.00 0.00 0.00 80 1020.8
20260906110816 61 74 0.0 2.0 0.00 0.00 0.00 80 1020.7
20260906110325 61 69 1.0 3.0 0.00 0.00 0.00 80 1020.8
20260906105827 61 70 1.0 3.0 0.00 0.00 0.00 80 1020.8
20260906105328 61 69 1.0 3.0 0.00 0.00 0.00 80 1020.8
20260906104838 62 69 1.0 3.0 0.00 0.00 0.00 80 1020.8
20260906104319 62 67 1.0 3.0 0.00 0.00 0.00 80 1020.8
20260906103819 62 65 1.0 3.0 0.00 0.00 0.00 80 1020.8
20260906103326 62 66 1.0 3.0 0.00 0.00 0.00 80 1020.7
20260906102828 62 73 1.0 3.0 0.00 0.00 0.00 80 1020.7
20260906102337 62 69 1.0 2.0 0.00 0.00 0.00 80 1020.8
20260906101818 62 67 1.0 2.0 0.00 0.00 0.00 80 1020.8
20260906101321 62 72 1.0 3.0 0.00 0.00 0.00 80 1020.7
20260906100829 62 63 1.0 3.0 0.00 0.00 0.00 81 1020.7
20260906100333 62 71 1.0 3.0 0.00 0.00 0.00 81 1020.8
20260906095821 62 68 1.0 3.0 0.00 0.00 0.00 81 1020.7
20260906095322 62 68 1.0 3.0 0.00 0.00 0.00 81 1020.8
20260906094824 62 74 1.0 3.0 0.00 0.00 0.00 81 1020.6
20260906094334 62 72 2.0 3.0 0.00 0.00 0.00 82 1020.6
20260906093816 62 72 2.0 3.0 0.00 0.00 0.00 81 1020.6
20260906093317 62 74 1.0 3.0 0.00 0.00 0.00 81 1020.6
20260906092846 62 72 1.0 2.0 0.00 0.00 0.00 81 1020.6
20260906092327 62 69 1.0 2.0 0.00 0.00 0.00 82 1020.6
20260906091836 62 75 1.0 3.0 0.00 0.00 0.00 82 1020.6
20260906091318 62 75 1.0 3.0 0.00 0.00 0.00 81 1020.6
20260906090819 62 74 1.0 3.0 0.00 0.00 0.00 81 1020.5
20260906090328 62 72 1.0 3.0 0.00 0.00 0.00 81 1020.5
20260906085830 62 69 1.0 2.0 0.00 0.00 0.00 81 1020.5
20260906085359 62 71 1.0 3.0 0.00 0.00 0.00 81 1020.5
20260906084819 63 71 1.0 3.0 0.00 0.00 0.00 81 1020.5
20260906084322 63 65 1.0 3.0 0.00 0.00 0.00 81 1020.4
20260906083851 63 73 1.0 3.0 0.00 0.00 0.00 80 1020.4
20260906083311 63 63 1.0 3.0 0.00 0.00 0.00 80 1020.4
20260906082813 63 69 1.0 3.0 0.00 0.00 0.00 80 1020.4
20260906082322 63 63 1.0 2.0 0.00 0.00 0.00 80 1020.3
20260906081826 63 58 0.0 2.0 0.00 0.00 0.00 80 1020.3
20260906081336 63 341 0.0 1.0 0.00 0.00 0.00 80 1020.2
20260906080836 63 325 0.0 1.0 0.00 0.00 0.00 79 1020.1
20260906080344 63 325 0.0 1.0 0.00 0.00 0.00 79 1020.0
20260906075825 64 325 0.0 1.0 0.00 0.00 0.00 79 1020.0
20260906075327 64 325 0.0 1.0 0.00 0.00 0.00 79 1019.9
20260906074836 64 326 0.0 1.0 0.00 0.00 0.00 79 1020.0
20260906074339 64 360 0.0 1.0 0.00 0.00 0.00 79 1020.0
20260906073826 64 326 0.0 1.0 0.00 0.00 0.00 79 1020.0
20260906073343 64 325 0.0 2.0 0.00 0.00 0.00 78 1019.9
20260906072831 64 360 0.0 2.0 0.00 0.00 0.00 78 1020.0
20260906072317 64 30 0.0 1.0 0.00 0.00 0.00 78 1019.8
20260906071844 64 32 0.0 2.0 0.00 0.00 0.00 78 1019.9
20260906071324 65 9 0.0 2.0 0.00 0.00 0.00 78 1020.0
20260906070825 65 58 0.0 2.0 0.00 0.00 0.00 78 1020.0
20260906070311 65 58 0.0 2.0 0.00 0.00 0.00 78 1020.1
20260906065820 65 58 0.0 3.0 0.00 0.00 0.00 78 1019.8
20260906065323 65 66 1.0 3.0 0.00 0.00 0.00 78 1019.7
20260906064831 65 26 1.0 3.0 0.00 0.00 0.00 78 1019.8
20260906064314 65 36 0.0 2.0 0.00 0.00 0.00 78 1019.8
20260906063815 65 71 1.0 2.0 0.00 0.00 0.00 78 1019.7
20260906063344 65 65 1.0 3.0 0.00 0.00 0.00 78 1019.7
20260906062843 65 65 1.0 3.0 0.00 0.00 0.00 78 1019.8
20260906062314 65 63 1.0 3.0 0.00 0.00 0.00 78 1019.7
20260906061817 65 71 1.0 2.0 0.00 0.00 0.00 78 1019.9
20260906061320 65 71 0.0 2.0 0.00 0.00 0.00 78 1019.9
20260906060828 65 71 1.0 2.0 0.00 0.00 0.00 79 1020.0
20260906060329 65 63 0.0 3.0 0.00 0.00 0.00 79 1020.0
20260906055830 66 69 1.0 3.0 0.00 0.00 0.00 79 1019.9
20260906055320 66 64 1.0 3.0 0.00 0.00 0.00 79 1020.0
20260906054820 66 65 1.0 3.0 0.00 0.00 0.00 79 1019.9
20260906054322 66 69 1.0 2.0 0.00 0.00 0.00 79 1019.8
20260906053851 66 71 1.0 2.0 0.00 0.00 0.00 79 1019.8
20260906053311 66 70 1.0 3.0 0.00 0.00 0.00 79 1019.8
20260906052821 67 69 1.0 3.0 0.00 0.00 0.00 79 1019.8
20260906052322 67 69 1.0 3.0 0.00 0.00 0.00 78 1019.8
20260906051823 67 68 1.0 3.0 0.00 0.00 0.00 78 1019.8
20260906051333 67 68 1.0 2.0 0.00 0.00 0.00 78 1019.7
20260906050835 67 72 1.0 3.0 0.00 0.00 0.00 78 1019.7
20260906050316 67 72 0.0 3.0 0.00 0.00 0.00 78 1019.7
20260906045824 68 62 1.0 2.0 0.00 0.00 0.00 78 1019.7
20260906045326 68 67 1.0 2.0 0.00 0.00 0.00 79 1019.5
20260906044835 68 66 1.0 2.0 0.00 0.00 0.00 79 1019.6
20260906044317 68 65 0.0 3.0 0.00 0.00 0.00 79 1019.5
20260906043818 68 313 1.0 3.0 0.00 0.00 0.00 79 1019.5
20260906043328 68 45 0.0 2.0 0.00 0.00 0.00 79 1019.5
20260906042829 68 19 0.0 1.0 0.00 0.00 0.00 80 1019.5
20260906042331 68 355 0.0 1.0 0.00 0.00 0.00 80 1019.5
20260906041812 68 360 0.0 1.0 0.00 0.00 0.00 81 1019.4
20260906041342 68 360 0.0 1.0 0.00 0.00 0.00 81 1019.4
20260906040849 68 360 0.0 1.0 0.00 0.00 0.00 81 1019.3
20260906040330 68 360 0.0 1.0 0.00 0.00 0.00 81 1019.3
20260906035839 69 61 0.0 1.0 0.00 0.00 0.00 81 1019.1
20260906035320 69 60 0.0 0.0 0.00 0.00 0.00 81 1019.1
20260906034822 69 61 0.0 0.0 0.00 0.00 0.00 81 1019.1
20260906034332 69 61 0.0 0.0 0.00 0.00 0.00 81 1019.1
20260906033830 69 61 0.0 0.0 0.00 0.00 0.00 81 1019.0
20260906033340 69 61 0.0 1.0 0.00 0.00 0.00 81 1018.9
20260906032822 69 61 0.0 2.0 0.00 0.00 0.00 81 1018.9
20260906032323 69 61 1.0 2.0 0.00 0.00 0.00 81 1018.8
20260906031832 69 60 0.0 1.0 0.00 0.00 0.00 81 1018.7
20260906031314 69 60 0.0 2.0 0.00 0.00 0.00 81 1018.7
20260906030816 69 61 1.0 2.0 0.00 0.00 0.00 81 1018.6
20260906030325 69 60 0.0 1.0 0.00 0.00 0.00 81 1018.6
20260906025826 69 61 0.0 2.0 0.00 0.00 0.00 80 1018.6
20260906025336 70 60 1.0 2.0 0.00 0.00 0.00 80 1018.7
20260906024817 70 61 0.0 2.0 0.00 0.00 0.00 80 1018.6
20260906024319 70 61 1.0 2.0 0.00 0.00 0.00 80 1018.5
20260906023828 70 60 1.0 2.0 0.00 0.00 0.00 80 1018.5
20260906023337 70 61 1.0 2.0 0.00 0.00 0.00 79 1018.5
20260906022818 70 59 1.0 2.0 0.00 0.00 0.00 79 1018.6
20260906022320 70 59 0.0 1.0 0.00 0.00 0.00 79 1018.5
20260906021847 70 60 0.0 2.0 0.00 0.00 0.00 79 1018.5
20260906021312 70 60 1.0 2.0 0.00 0.00 0.00 78 1018.4
20260906020820 70 59 1.0 2.0 0.00 0.00 0.00 78 1018.4
20260906020323 71 56 1.0 2.0 0.00 0.00 0.00 78 1018.5
20260906015848 71 53 1.0 2.0 0.00 0.00 0.00 78 1018.4
20260906015313 71 53 1.0 2.0 0.00 0.00 0.00 78 1018.4
20260906014815 71 52 1.0 2.0 0.00 0.00 0.00 77 1018.4
20260906014340 71 34 0.0 1.0 0.00 0.00 0.00 77 1018.4
20260906013821 71 30 0.0 2.0 0.00 0.00 0.00 77 1018.1
20260906013330 71 49 0.0 2.0 0.00 0.00 0.00 77 1018.1
20260906012811 71 343 0.0 1.0 0.00 0.00 0.00 77 1018.1
20260906012313 71 343 0.0 2.0 0.00 0.00 0.00 77 1018.1
20260906011822 71 59 0.0 2.0 0.00 0.00 0.00 77 1017.9
20260906011325 71 59 0.0 1.0 0.00 0.00 0.00 77 1017.9
20260906010833 71 59 0.0 2.0 0.00 0.00 0.00 77 1018.0
20260906010319 71 54 0.0 2.0 0.00 0.00 0.00 77 1017.9
20260906005821 71 52 0.0 2.0 0.00 0.00 0.00 77 1017.9
20260906005323 71 47 0.0 1.0 0.00 0.00 0.00 77 1017.8
20260906004833 72 47 1.0 2.0 0.00 0.00 0.00 77 1017.7
20260906004317 72 360 0.0 2.0 0.00 0.00 0.00 76 1017.7
20260906003818 72 345 0.0 1.0 0.00 0.00 0.00 76 1017.6
20260906003327 72 355 0.0 1.0 0.00 0.00 0.00 76 1017.6
20260906002850 72 30 0.0 1.0 0.00 0.00 0.00 77 1017.4
20260906002337 72 49 0.0 2.0 0.00 0.00 0.00 76 1017.5
20260906001818 73 49 1.0 2.0 0.00 0.00 0.00 76 1017.5
20260906001320 73 24 0.0 2.0 0.00 0.00 0.00 76 1017.6
20260906000829 73 5 0.0 2.0 0.00 0.00 0.00 75 1017.7
20260906000330 74 35 0.0 1.0 0.00 0.00 0.00 75 1017.7
20260905235812 74 34 0.0 3.0 0.00 0.00 0.00 76 1017.6
20260905235314 74 34 1.0 3.0 0.00 0.00 0.00 75 1017.6
20260905234823 74 360 0.0 2.0 0.00 0.00 0.00 75 1017.7
20260905234325 74 17 1.0 2.0 0.00 0.00 0.00 75 1017.7
20260905233833 74 313 0.0 4.0 0.00 0.00 0.00 74 1017.7
20260905233316 74 355 0.0 4.0 0.00 0.00 0.00 75 1017.7
20260905232818 74 23 1.0 5.0 0.00 0.00 0.00 74 1017.8
20260905232320 74 320 1.0 5.0 0.00 0.00 0.00 74 1017.7
20260905231829 74 346 1.0 3.0 0.00 0.00 0.00 74 1017.7
20260905231349 75 319 1.0 3.0 0.00 0.00 0.00 76 1017.8
20260905230836 75 24 1.0 3.0 0.00 0.00 0.00 76 1017.7
20260905230316 75 294 0.0 3.0 0.00 0.00 0.00 76 1017.7
20260905225825 75 349 1.0 4.0 0.00 0.00 0.00 76 1017.6
20260905225327 75 321 1.0 4.0 0.00 0.00 0.00 76 1017.6
20260905224829 76 46 2.0 5.0 0.00 0.00 0.00 75 1017.7
20260905224338 76 327 2.0 5.0 0.00 0.00 0.00 75 1017.7
20260905223840 76 264 2.0 4.0 0.00 0.00 0.00 76 1017.7
20260905223329 76 267 2.0 4.0 0.00 0.00 0.00 77 1017.6
20260905222830 76 279 2.0 4.0 0.00 0.00 0.00 77 1017.6
20260905222312 76 282 1.0 3.0 0.00 0.00 0.00 77 1017.6
20260905221814 76 319 1.0 3.0 0.00 0.00 0.00 77 1017.4
20260905221323 76 360 1.0 3.0 0.00 0.00 0.00 77 1017.4
20260905220824 76 285 1.0 4.0 0.00 0.00 0.00 77 1017.4
20260905220333 76 303 2.0 4.0 0.00 0.00 0.00 77 1017.4
20260905215815 76 301 2.0 4.0 0.00 0.00 0.00 76 1017.4
20260905215317 76 292 2.0 4.0 0.00 0.00 0.00 76 1017.4
20260905214845 76 315 2.0 4.0 0.00 0.00 0.00 76 1017.3
20260905214326 76 311 2.0 3.0 0.00 0.00 0.00 75 1017.3
20260905213833 77 290 2.0 3.0 0.00 0.00 0.00 75 1017.1
20260905213314 77 316 2.0 4.0 0.00 0.00 0.00 74 1017.2
20260905212816 78 280 1.0 4.0 0.00 0.00 0.00 74 1017.1
20260905212346 78 264 2.0 4.0 0.00 0.00 0.00 73 1017.1
20260905211826 78 100 2.0 3.0 0.00 0.00 0.00 73 1017.2
20260905211329 78 293 1.0 3.0 0.00 0.00 0.00 74 1017.3
20260905210837 78 300 2.0 3.0 0.00 0.00 0.00 74 1017.3
20260905210318 78 303 2.0 3.0 0.00 0.00 0.00 73 1017.5
20260905205820 78 306 1.0 3.0 0.00 0.00 0.00 74 1017.6
20260905205329 78 272 2.0 3.0 0.00 0.00 0.00 74 1017.5
20260905204811 78 307 2.0 3.0 0.00 0.00 0.00 75 1017.4
20260905204335 77 277 2.0 3.0 0.00 0.00 0.00 76 1017.4
20260905203822 77 295 2.0 3.0 0.00 0.00 0.00 76 1017.4
20260905203323 77 294 2.0 4.0 0.00 0.00 0.00 74 1017.4
20260905202832 78 269 1.0 4.0 0.00 0.00 0.00 73 1017.3
20260905202333 78 322 1.0 2.0 0.00 0.00 0.00 73 1017.3
20260905201822 78 244 0.0 2.0 0.00 0.00 0.00 72 1017.4
20260905201324 79 245 0.0 2.0 0.00 0.00 0.00 73 1017.3
20260905200813 79 164 0.0 2.0 0.00 0.00 0.00 74 1017.3
20260905200335 79 97 1.0 2.0 0.00 0.00 0.00 72 1017.5
20260905195844 79 92 0.0 2.0 0.00 0.00 0.00 74 1017.4
20260905195323 78 5 1.0 2.0 0.00 0.00 0.00 75 1017.5
20260905194832 77 46 1.0 3.0 0.00 0.00 0.00 75 1017.5
20260905194314 76 307 1.0 3.0 0.00 0.00 0.00 78 1017.7
20260905193815 75 54 1.0 3.0 0.00 0.00 0.00 79 1017.7
20260905193325 74 73 1.0 3.0 0.00 0.00 0.00 78 1017.6
20260905192826 74 53 1.0 3.0 0.00 0.00 0.00 79 1017.7
20260905192357 74 53 1.0 3.0 0.00 0.00 0.00 78 1017.7
20260905191817 74 56 0.0 2.0 0.00 0.00 0.00 78 1017.7
20260905191320 74 23 1.0 4.0 0.00 0.00 0.00 78 1017.7
20260905190828 74 72 1.0 4.0 0.00 0.00 0.00 79 1017.7
20260905190329 74 68 1.0 3.0 0.00 0.00 0.00 78 1017.6
20260905185858 74 76 1.0 4.0 0.00 0.00 0.00 79 1017.7
20260905185318 73 77 1.0 4.0 0.00 0.00 0.00 79 1017.7
20260905184820 73 55 1.0 4.0 0.00 0.00 0.00 80 1017.7
20260905184330 73 68 1.0 3.0 0.00 0.00 0.00 81 1017.7
20260905183811 73 69 0.0 3.0 0.00 0.00 0.00 81 1017.9
20260905183313 73 360 0.0 3.0 0.00 0.00 0.00 81 1018.0
20260905182815 72 309 1.0 3.0 0.00 0.00 0.00 82 1018.0
20260905182324 72 82 1.0 3.0 0.00 0.00 0.00 82 1018.0
20260905181825 72 65 1.0 3.0 0.00 0.00 0.00 82 1018.0
20260905181335 72 53 1.0 2.0 0.00 0.00 0.00 82 1018.2
20260905180816 71 52 1.0 2.0 0.00 0.00 0.00 82 1018.2
20260905180318 71 15 1.0 2.0 0.00 0.00 0.00 82 1018.3
20260905175821 71 22 1.0 2.0 0.00 0.00 0.00 82 1018.2
20260905175329 71 75 1.0 2.0 0.00 0.00 0.00 82 1018.2
20260905174811 71 47 1.0 2.0 0.00 0.00 0.00 82 1018.2
20260905174340 70 12 0.0 2.0 0.00 0.00 0.00 83 1018.2
20260905173821 70 57 1.0 2.0 0.00 0.00 0.00 83 1018.1
20260905173322 70 59 0.0 3.0 0.00 0.00 0.00 84 1018.0
20260905172831 70 69 0.0 3.0 0.00 0.00 0.00 83 1017.9
20260905172314 70 60 1.0 2.0 0.00 0.00 0.00 84 1018.0
20260905171816 70 360 1.0 3.0 0.00 0.00 0.00 83 1018.0
20260905171346 70 71 1.0 3.0 0.00 0.00 0.00 84 1018.0
20260905170825 70 55 0.0 2.0 0.00 0.00 0.00 84 1018.0
20260905170334 69 61 1.0 2.0 0.00 0.00 0.00 84 1018.1
20260905165815 69 70 1.0 3.0 0.00 0.00 0.00 84 1018.1
20260905165325 69 76 1.0 3.0 0.00 0.00 0.00 84 1018.1
20260905164825 69 78 1.0 3.0 0.00 0.00 0.00 84 1018.1
20260905164329 69 79 1.0 3.0 0.00 0.00 0.00 84 1018.1
20260905163833 69 360 1.0 3.0 0.00 0.00 0.00 84 1018.1
20260905163315 69 360 0.0 2.0 0.00 0.00 0.00 84 1018.1
20260905162817 69 257 1.0 2.0 0.00 0.00 0.00 84 1018.1
20260905162327 69 360 0.0 2.0 0.00 0.00 0.00 84 1018.0
20260905161828 69 330 0.0 2.0 0.00 0.00 0.00 84 1017.8
20260905161330 69 360 0.0 2.0 0.00 0.00 0.00 84 1017.8
20260905160811 69 329 1.0 3.0 0.00 0.01 0.00 84 1017.7
20260905160319 69 69 1.0 3.0 0.00 0.01 0.00 84 1017.7
20260905155821 69 72 1.0 3.0 0.00 0.01 0.00 84 1017.8
20260905155351 69 72 1.0 3.0 0.00 0.01 0.00 84 1017.7
20260905154812 69 75 1.0 3.0 0.00 0.01 0.00 85 1017.6
20260905154314 69 68 1.0 2.0 0.00 0.01 0.00 85 1017.7
20260905153823 69 68 1.0 2.0 0.00 0.01 0.00 84 1017.7
20260905153325 68 68 1.0 3.0 0.00 0.01 0.00 85 1017.6
20260905152826 68 76 1.0 3.0 0.00 0.01 0.00 85 1017.6
20260905152335 68 68 1.0 3.0 0.00 0.01 0.00 85 1017.5
20260905151837 68 71 1.0 136.0 0.00 0.01 0.00 85 1017.4
20260905151346 68 76 1.0 136.0 0.00 0.01 0.00 85 1017.5
20260905150825 67 68 1.0 137.0 0.00 0.01 0.00 84 1017.4
20260905150334 67 48 11.0 137.0 0.00 0.01 0.00 84 1017.4
20260905145816 67 82 136.0 137.0 0.00 0.01 0.00 84 1017.5
20260905145318 67 67 136.0 137.0 0.00 0.01 0.00 84 1017.4
20260905144827 67 71 136.0 137.0 0.00 0.01 0.00 84 1017.3
20260905144329 67 74 137.0 137.0 0.00 0.01 0.00 84 1017.4
20260905143829 67 69 136.0 136.0 0.00 0.01 0.00 84 1017.4